DateTimeUTC,F1_A11,F1_S11,BsB_S11,BsG_S11,BsR_S11,BbsB_S11,BbsG_S11,BbsR_S11,BaB_A11,BaG_A11,BaR_A11,Tu_S11,T_S11,Uu_S11,U_S11,P_S11,T1_A11
2021-08-19T00:00:00Z,00000200,20000000,,,,,,,-000.10,0000.14,-000.04,20.1,26.7,15.4,10.4,0677.5,31.1
2021-08-19T00:01:00Z,00000200,20000000,,,,,,,-000.11,0000.06,-000.20,20.1,26.7,15.3,10.3,0677.5,31.1
2021-08-19T00:02:00Z,00000200,20000000,,,,,,,-000.19,-000.22,0000.16,20.1,26.7,15.3,10.3,0677.5,31.1
2021-08-19T00:03:00Z,00000200,60000000,,,,,,,0000.06,0000.02,-000.03,20.1,26.7,15.3,10.3,0677.5,31.1
2021-08-19T00:04:00Z,00000200,40000000,-000.04,0000.20,0000.07,0000.29,0000.13,0000.46,0000.21,0000.11,0000.18,20.2,26.6,15.4,10.5,0678.4,31.1
2021-08-19T00:05:00Z,00000200,00000000,0000.46,0000.33,-000.16,0000.82,0000.10,-000.03,0000.19,-000.11,0000.14,20.3,26.5,15.5,10.6,0678.4,31.1
2021-08-19T00:06:00Z,00000200,00000000,0000.09,0000.19,-000.15,0000.88,0000.04,0000.03,-000.17,0000.10,-000.24,20.3,26.5,15.5,10.6,0678.4,31.1
2021-08-19T00:07:00Z,00000200,00000000,0000.50,-000.21,-000.11,0000.79,0000.01,-000.04,0000.03,-000.04,-000.31,20.3,26.5,15.5,10.6,0678.4,31.1
2021-08-19T00:08:00Z,00000200,00000000,0000.13,0000.01,-000.05,0000.55,0000.01,0000.25,0000.06,-000.09,0000.45,20.3,26.5,15.6,10.7,0678.4,31.1
2021-08-19T00:09:00Z,00000200,00000000,0000.71,-000.17,-000.05,0000.16,-000.03,0000.01,-000.12,-000.15,0000.02,20.3,26.5,15.6,10.7,0678.4,31.1
2021-08-19T00:10:00Z,00000200,00000000,0000.64,0000.37,-000.40,0000.40,-000.00,0000.01,0000.51,0000.20,0000.06,20.3,26.5,15.7,10.8,0678.4,31.1
2021-08-19T00:11:00Z,00000200,00000000,0000.10,0000.19,-000.56,0000.68,0000.17,0000.09,-000.31,-000.04,-000.18,20.3,26.5,15.6,10.7,0678.4,31.1
2021-08-19T00:12:00Z,00000200,00000000,-000.56,0000.03,0000.22,-000.23,0000.18,-000.05,0000.08,0000.05,0000.08,20.3,26.5,15.7,10.8,0678.4,31.1
2021-08-19T00:13:00Z,00000200,00000000,-000.05,0000.10,-000.37,0000.33,0000.06,0000.01,-000.07,-000.06,-000.18,20.3,26.5,15.6,10.7,0678.4,31.1
2021-08-19T00:14:00Z,00000200,00000000,-000.24,-000.25,0000.14,0000.10,-000.18,0000.39,-000.18,0000.16,0000.14,20.3,26.5,15.5,10.7,0678.4,31.1
2021-08-19T00:15:00Z,00000200,00000000,0000.07,-000.27,-000.37,0000.48,0000.02,-000.12,0000.16,-000.06,0000.02,20.3,26.5,15.5,10.6,0678.4,31.1
2021-08-19T00:16:00Z,00000200,00000000,-000.29,-000.20,-000.13,0000.67,-000.14,-000.03,-000.19,0000.09,-000.14,20.3,26.5,15.5,10.7,0678.4,31.1
2021-08-19T00:17:00Z,00000200,00000000,-000.40,0000.02,-000.02,0000.17,0000.12,0000.14,-000.09,-000.20,0000.16,20.3,26.5,15.5,10.7,0678.4,31.1
2021-08-19T00:18:00Z,00000200,00000000,-000.74,0000.45,-000.02,0000.60,0000.02,0000.08,0000.30,0000.08,-000.25,20.3,26.5,15.5,10.6,0678.4,31.1
2021-08-19T00:19:00Z,00000200,00000000,0000.87,0000.22,0000.13,0000.10,0000.14,0000.15,-000.12,-000.19,-000.01,20.3,26.5,15.5,10.6,0678.4,31.1
2021-08-19T00:20:00Z,00000200,00000000,0000.49,-000.01,0000.23,0000.28,0000.10,0000.14,-000.13,0000.08,-000.13,20.3,26.4,15.4,10.6,0678.4,31.1
2021-08-19T00:21:00Z,00000200,00000000,-000.14,0000.14,-000.11,0000.18,0000.05,0000.32,-000.12,-000.05,0000.16,20.3,26.4,15.4,10.6,0678.4,31.1
2021-08-19T00:22:00Z,00000200,00000000,0000.11,0000.35,-000.23,-000.07,-000.25,-000.31,0000.04,0000.20,-000.04,20.3,26.4,15.4,10.6,0678.4,31.1
2021-08-19T00:23:00Z,00000200,00000000,0000.55,0000.41,-000.21,0000.11,0000.23,-000.18,0000.03,-000.07,-000.05,20.3,26.5,15.4,10.6,0678.4,31.1
2021-08-19T00:24:00Z,00000200,00000000,-000.30,-000.07,-000.50,-000.53,0000.25,-000.28,0000.47,0000.20,0000.03,20.3,26.4,15.4,10.6,0678.4,31.1
2021-08-19T00:25:00Z,00000200,00000000,-000.05,-000.09,-000.35,0000.36,-000.06,-000.17,-000.28,-000.10,0000.10,20.3,26.4,15.5,10.7,0678.4,31.1
2021-08-19T00:26:00Z,00000200,00000000,0000.45,0000.24,-000.14,0000.41,0000.00,0000.21,0000.09,0000.12,0000.07,20.3,26.4,15.5,10.7,0678.4,31.1
2021-08-19T00:27:00Z,00000200,00000000,0001.35,0000.13,0000.19,0000.77,-000.38,0000.28,-000.20,-000.32,0000.07,20.3,26.4,15.5,10.7,0678.4,31.1
2021-08-19T00:28:00Z,00000200,00000000,0000.52,0000.23,0000.18,0000.48,0000.07,-000.09,0000.19,0000.34,-000.08,20.3,26.4,15.5,10.7,0678.4,31.1
2021-08-19T00:29:00Z,00000200,00000000,0000.41,0000.48,-000.06,0000.34,-000.05,-000.17,0000.29,-000.30,0000.04,20.3,26.4,15.6,10.7,0678.4,31.1
2021-08-19T00:30:00Z,00000200,00000000,0001.12,0000.39,-000.12,0000.43,0000.03,-000.06,-000.21,0000.04,0000.17,20.3,26.4,15.5,10.7,0678.4,31.1
2021-08-19T00:31:00Z,00000200,00000000,-000.01,-000.11,0000.01,0000.63,-000.04,0000.10,-000.03,0000.19,0000.10,20.3,26.4,15.5,10.7,0678.4,31.1
2021-08-19T00:32:00Z,00000200,00000000,0000.43,0000.06,0000.05,0000.36,-000.20,0000.36,0000.19,-000.13,-000.21,20.3,26.4,15.6,10.8,0678.4,31.1
2021-08-19T00:33:00Z,00000200,00000000,0000.42,0000.08,0000.50,0000.23,0000.05,0000.06,0000.13,0000.27,0000.51,20.3,26.4,15.7,10.8,0678.4,31.1
2021-08-19T00:34:00Z,00000200,00000000,0000.65,0000.33,-000.17,0000.68,-000.28,0000.06,-000.02,0000.10,-000.17,20.3,26.4,15.6,10.8,0678.4,31.1
2021-08-19T00:35:00Z,00000200,00000000,0000.15,0000.19,0000.13,0000.79,0000.01,0000.37,-000.10,-000.09,-000.10,20.2,26.4,15.6,10.8,0678.3,31.1
2021-08-19T00:36:00Z,00000200,00000000,0000.69,0000.10,-000.13,0000.17,-000.20,-000.08,0000.17,-000.07,-000.05,20.2,26.4,15.6,10.8,0678.3,31.1
2021-08-19T00:37:00Z,00000200,00000000,0000.01,0000.49,-000.03,0000.26,0000.21,0000.03,0000.06,0000.04,0000.09,20.2,26.4,15.7,10.8,0678.4,31.1
2021-08-19T00:38:00Z,00000200,00000000,0000.73,0000.36,0000.29,-000.37,0000.18,-000.34,0000.05,0000.11,-000.01,20.2,26.4,15.6,10.8,0678.4,31.1
2021-08-19T00:39:00Z,00000200,00000000,0000.74,0000.06,-000.33,0000.32,0000.16,0000.12,0000.00,-000.01,-000.07,20.2,26.4,15.7,10.8,0678.3,31.1
2021-08-19T00:40:00Z,00000200,00000000,0000.44,-000.20,-000.02,0000.22,0000.16,-000.14,0000.20,0000.14,-000.12,20.2,26.4,15.7,10.8,0678.3,31.1
2021-08-19T00:41:00Z,00000200,00000000,0001.12,0000.18,0000.17,0000.49,-000.04,-000.03,0000.02,0000.08,0000.24,20.2,26.4,15.7,10.8,0678.3,31.1
2021-08-19T00:42:00Z,00000200,00000000,-000.05,0000.46,-000.09,0000.32,-000.02,0000.01,0000.02,0000.19,0000.29,20.2,26.4,15.7,10.8,0678.3,31.1
2021-08-19T00:43:00Z,00000200,00000000,0000.92,0000.47,-000.07,0000.55,0000.07,-000.15,0000.11,0000.22,0000.02,20.2,26.4,15.7,10.9,0678.4,31.1
2021-08-19T00:44:00Z,00000200,00000000,0000.40,0000.35,0000.14,0000.82,-000.04,0000.22,0000.08,0000.08,-000.00,20.2,26.4,15.8,10.9,0678.4,31.1
2021-08-19T00:45:00Z,00000200,00000000,0000.46,0000.52,0000.36,0000.29,0000.06,-000.30,0000.19,-000.36,-000.30,20.2,26.4,15.8,10.9,0678.3,31.1
2021-08-19T00:46:00Z,00000200,00000000,0000.44,0000.36,0000.04,0000.34,-000.31,-000.09,-000.09,-000.01,0000.27,20.2,26.4,16.0,11.0,0678.3,31.1
2021-08-19T00:47:00Z,00000200,00000000,-000.07,0000.07,0000.03,-000.07,-000.13,-000.05,0000.35,0000.14,0000.13,20.2,26.4,15.9,10.9,0678.3,31.1
2021-08-19T00:48:00Z,00000200,00000000,0000.79,0000.60,0000.21,0000.37,0000.29,-000.12,-000.41,0000.06,-000.10,20.2,26.4,16.0,11.0,0678.3,31.1
2021-08-19T00:49:00Z,00000200,00000000,0000.47,0000.11,-000.08,-000.21,-000.03,-000.09,0000.24,0000.18,0000.30,20.2,26.4,15.9,10.9,0678.3,31.1
2021-08-19T00:50:00Z,00000200,00000000,0000.51,0000.05,0000.03,0000.33,0000.01,0000.17,0000.04,0000.40,-000.04,20.2,26.3,15.9,11.0,0678.3,31.1
2021-08-19T00:51:00Z,00000200,00000000,0000.21,0000.47,0000.10,0000.20,-000.09,0000.16,0000.19,-000.13,-000.14,20.2,26.3,15.9,10.9,0678.3,31.1
2021-08-19T00:52:00Z,00000200,00000000,0001.06,0000.51,0000.02,-000.06,-000.17,-000.16,0000.10,-000.01,0000.33,20.2,26.4,15.9,11.0,0678.3,31.1
2021-08-19T00:53:00Z,00000200,00000000,0000.60,0000.18,-000.12,0000.58,0000.01,0000.05,0000.28,0000.39,0000.11,20.2,26.3,16.0,11.0,0678.3,31.1
2021-08-19T00:54:00Z,00000200,00000000,0000.91,0000.37,0000.13,0000.08,-000.12,0000.10,-000.06,-000.18,-000.20,20.2,26.3,16.0,11.0,0678.3,31.1
2021-08-19T00:55:00Z,00000200,00000000,0000.65,0000.22,0000.15,0000.31,-000.05,-000.09,0000.36,0000.24,0000.43,20.2,26.3,16.1,11.0,0678.3,31.1
2021-08-19T00:56:00Z,00000200,00000000,-000.17,0000.32,0000.18,0000.09,0000.05,0000.00,-000.05,-000.04,-000.18,20.2,26.3,16.0,11.0,0678.3,31.1
2021-08-19T00:57:00Z,00000200,40000000,,,,,,,-000.18,0000.09,0000.35,20.2,26.3,16.0,11.1,0678.3,31.1
2021-08-19T00:58:00Z,00000200,60000000,,,,,,,0000.22,0000.18,-000.43,20.0,26.4,16.1,10.9,0677.3,31.1
2021-08-19T00:59:00Z,00000200,20000000,,,,,,,-000.03,-000.18,0000.24,20.0,26.5,16.0,10.8,0677.3,31.1
